EW8275 Weather Reports


Display with metric or nautical units.
time (UTC)temp
F
wind
direction
speed
MPH
gust
MPH
rain 1hr
in
rain 24hr
in
rain mn
in
humidity
%
barometer
mb
20260505050602 50 360 2.0 8.0 0.00 0.00 0.00 88 1011.1
20260505041532 50 51 3.0 8.0 0.00 0.00 0.00 88 1011.1
20260505041048 50 313 2.0 7.0 0.00 0.00 0.00 88 1011.2
20260505040539 50 17 4.0 7.0 0.00 0.00 0.00 88 1011.2
20260505040030 50 17 3.0 6.0 0.00 0.00 0.00 88 1011.2
20260505035550 50 27 3.0 9.0 0.00 0.00 0.00 88 1011.3
20260505035033 50 33 3.0 9.0 0.00 0.00 0.00 87 1011.3
20260505034532 50 17 4.0 9.0 0.00 0.00 0.00 87 1011.3
20260505034057 50 355 4.0 11.0 0.00 0.00 0.00 87 1011.3
20260505033535 50 40 3.0 11.0 0.00 0.00 0.00 87 1011.2
20260505033052 50 15 4.0 9.0 0.00 0.00 0.00 87 1011.3
20260505032608 50 31 4.0 9.0 0.00 0.00 0.00 87 1011.3
20260505032100 50 360 4.0 11.0 0.00 0.00 0.00 87 1011.3
20260505031548 50 28 5.0 11.0 0.00 0.00 0.00 87 1011.3
20260505031044 50 36 4.0 11.0 0.00 0.00 0.00 87 1011.4
20260505030535 50 347 5.0 11.0 0.00 0.00 0.00 87 1011.4
20260505030043 50 18 4.0 9.0 0.00 0.00 0.00 87 1011.4
20260505025546 50 334 3.0 9.0 0.00 0.00 0.00 87 1011.5
20260505025054 50 326 4.0 9.0 0.00 0.00 0.00 87 1011.3
20260505024549 50 27 4.0 9.0 0.00 0.00 0.00 87 1011.4
20260505024053 50 346 5.0 11.0 0.00 0.00 0.00 87 1011.4
20260505023559 50 5 6.0 11.0 0.00 0.00 0.00 87 1011.4
20260505023032 50 16 2.0 9.0 0.00 0.00 0.00 87 1011.6
20260505022537 50 18 4.0 9.0 0.00 0.00 0.00 87 1011.6
20260505022035 50 65 4.0 12.0 0.00 0.00 0.00 87 1011.6
20260505021544 50 345 4.0 12.0 0.00 0.00 0.00 87 1011.6
20260505021052 50 341 5.0 10.0 0.00 0.00 0.00 87 1011.6
20260505020607 50 349 4.0 10.0 0.00 0.00 0.00 87 1011.6
20260505020038 51 23 5.0 10.0 0.00 0.00 0.00 87 1011.6
20260505015542 51 340 4.0 10.0 0.00 0.00 0.00 87 1011.6
20260505015024 51 30 5.0 14.0 0.00 0.00 0.00 87 1011.6
20260505014622 51 355 4.0 14.0 0.00 0.00 0.00 87 1011.6
20260505014034 51 56 4.0 11.0 0.00 0.00 0.00 87 1011.8
20260505013532 51 302 3.0 9.0 0.00 0.00 0.00 87 1011.7
20260505013025 51 9 5.0 9.0 0.00 0.00 0.00 87 1011.8
20260505012543 51 355 5.0 10.0 0.00 0.00 0.00 87 1011.8
20260505012040 51 10 5.0 10.0 0.00 0.00 0.00 88 1011.8
20260505011534 51 12 5.0 10.0 0.00 0.00 0.00 88 1011.8
20260505011049 51 360 3.0 10.0 0.00 0.00 0.00 88 1011.8
20260505010536 51 19 5.0 9.0 0.00 0.00 0.00 87 1011.9
20260505010100 51 15 3.0 10.0 0.00 0.00 0.00 87 1011.9
20260505005549 52 24 4.0 10.0 0.00 0.00 0.00 87 1011.9
20260505005106 52 20 4.0 10.0 0.00 0.00 0.00 88 1012.0
20260505004530 52 5 4.0 9.0 0.00 0.00 0.00 88 1012.1
20260505004033 52 355 4.0 12.0 0.00 0.00 0.00 88 1012.0
20260505003603 52 29 5.0 12.0 0.00 0.00 0.00 88 1012.0
20260505003037 52 328 5.0 11.0 0.00 0.00 0.00 88 1012.0
20260505002600 52 336 4.0 10.0 0.00 0.00 0.00 87 1012.1
20260505002051 52 305 4.0 8.0 0.00 0.00 0.00 88 1012.1
20260505001528 52 5 3.0 7.0 0.00 0.00 0.00 88 1012.1
20260505001054 53 5 4.0 7.0 0.00 0.00 0.00 88 1012.2
20260505000532 52 13 4.0 9.0 0.00 0.00 0.00 87 1012.2
20260505000032 53 344 5.0 9.0 0.00 0.00 0.00 87 1012.2
20260504235534 53 32 3.0 9.0 0.00 0.00 0.00 87 1012.3
20260504235037 53 22 4.0 9.0 0.00 0.00 0.00 87 1012.3
20260504234540 53 20 4.0 10.0 0.00 0.00 0.00 87 1012.3
20260504234049 53 329 3.0 10.0 0.00 0.00 0.00 87 1012.3
20260504233534 53 315 2.0 8.0 0.00 0.00 0.00 87 1012.4
20260504233040 53 65 4.0 8.0 0.00 0.00 0.00 87 1012.5
20260504232547 53 16 5.0 9.0 0.00 0.00 0.00 87 1012.4
20260504232040 53 24 5.0 9.0 0.00 0.00 0.00 88 1012.5
20260504231623 53 329 4.0 8.0 0.00 0.00 0.00 88 1012.5
20260504231041 53 297 3.0 9.0 0.00 0.00 0.00 88 1012.5
20260504230544 53 32 4.0 9.0 0.00 0.00 0.00 88 1012.5
20260504230100 53 31 4.0 9.0 0.00 0.00 0.00 88 1012.5
20260504225531 53 35 3.0 8.0 0.00 0.00 0.00 88 1012.5
20260504225041 53 273 4.0 9.0 0.00 0.00 0.00 88 1012.5
20260504224545 54 360 5.0 9.0 0.00 0.00 0.00 88 1012.5
20260504224047 54 298 5.0 8.0 0.00 0.00 0.00 88 1012.5
20260504223531 54 80 3.0 8.0 0.00 0.00 0.00 88 1012.5
20260504223047 54 323 2.0 7.0 0.00 0.00 0.00 88 1012.6
20260504222537 54 28 4.0 6.0 0.00 0.00 0.00 88 1012.6
20260504222027 54 34 2.0 6.0 0.00 0.00 0.00 88 1012.6
20260504221534 54 28 3.0 9.0 0.00 0.00 0.00 88 1012.6
20260504221053 54 67 4.0 9.0 0.00 0.00 0.00 88 1012.6
20260504220553 54 338 4.0 7.0 0.00 0.00 0.00 88 1012.7
20260504220053 54 10 4.0 8.0 0.00 0.00 0.00 88 1012.6
20260504215544 54 336 3.0 12.0 0.00 0.00 0.00 88 1012.7
20260504215040 54 21 4.0 12.0 0.00 0.00 0.00 88 1012.7
20260504214605 54 333 4.0 8.0 0.00 0.00 0.00 88 1012.7
20260504214028 54 25 4.0 8.0 0.00 0.00 0.00 88 1012.7
20260504213535 54 50 3.0 9.0 0.00 0.00 0.00 88 1012.8
20260504213054 55 342 5.0 9.0 0.00 0.00 0.00 88 1012.8
20260504212557 55 344 4.0 7.0 0.00 0.00 0.00 88 1012.9
20260504212056 55 328 3.0 10.0 0.00 0.00 0.00 88 1012.9
20260504211533 55 38 3.0 10.0 0.00 0.00 0.00 87 1012.9
20260504211049 55 360 3.0 6.0 0.00 0.00 0.00 88 1012.9
20260504210532 55 53 4.0 7.0 0.00 0.00 0.00 88 1012.9
20260504210108 55 320 3.0 7.0 0.00 0.00 0.00 88 1012.9
20260504205540 55 30 3.0 8.0 0.00 0.00 0.00 88 1012.9
20260504205028 55 355 3.0 9.0 0.00 0.00 0.00 88 1012.9
20260504204557 55 19 3.0 9.0 0.00 0.00 0.00 88 1012.9
20260504204039 55 333 4.0 7.0 0.00 0.00 0.00 88 1012.9
20260504203554 55 5 2.0 7.0 0.00 0.00 0.00 88 1012.9
20260504203058 55 28 4.0 7.0 0.00 0.00 0.00 88 1012.9
20260504202600 55 5 4.0 6.0 0.00 0.00 0.00 88 1012.9
20260504202036 55 360 2.0 5.0 0.00 0.00 0.00 88 1012.9
20260504201542 55 351 2.0 4.0 0.00 0.00 0.00 88 1012.9
20260504201107 55 18 2.0 8.0 0.00 0.00 0.00 87 1012.8
20260504200539 55 336 2.0 8.0 0.00 0.00 0.00 87 1012.7
20260504200058 56 355 3.0 9.0 0.00 0.00 0.00 86 1012.7
20260504195529 56 15 6.0 9.0 0.00 0.00 0.00 86 1012.7
20260504195037 56 19 4.0 9.0 0.00 0.00 0.00 86 1012.7
20260504194608 56 68 3.0 10.0 0.00 0.00 0.00 86 1012.6
20260504194031 56 31 5.0 10.0 0.00 0.00 0.00 86 1012.6
20260504193535 57 42 4.0 10.0 0.00 0.00 0.00 86 1012.6
20260504193058 57 76 4.0 8.0 0.00 0.00 0.00 85 1012.4
20260504192603 57 360 4.0 8.0 0.00 0.00 0.00 85 1012.4
20260504192041 57 360 4.0 10.0 0.00 0.00 0.00 85 1012.3
20260504191556 57 23 7.0 11.0 0.00 0.00 0.00 84 1012.3
20260504191053 58 22 7.0 11.0 0.00 0.00 0.00 84 1012.3
20260504190536 58 350 5.0 9.0 0.00 0.00 0.00 84 1012.2
20260504190047 58 316 3.0 9.0 0.00 0.00 0.00 84 1012.2
20260504185540 58 36 5.0 9.0 0.00 0.12 0.00 84 1012.2
20260504185037 59 46 3.0 6.0 0.00 0.12 0.00 84 1012.2
20260504184608 59 29 2.0 7.0 0.00 0.12 0.00 84 1012.2
20260504184054 59 36 3.0 6.0 0.00 0.12 0.00 84 1012.2
20260504183546 59 60 2.0 7.0 0.00 0.12 0.00 84 1012.2
20260504183034 59 28 4.0 8.0 0.00 0.12 0.00 84 1012.2
20260504182548 59 76 4.0 10.0 0.00 0.12 0.00 84 1012.1
20260504182041 59 360 6.0 10.0 0.00 0.12 0.00 85 1012.1
20260504181533 60 33 3.0 6.0 0.00 0.12 0.00 85 1012.1
20260504181039 60 65 3.0 9.0 0.00 0.12 0.00 85 1012.1
20260504180603 59 28 4.0 12.0 0.00 0.12 0.00 85 1012.0
20260504180031 60 26 4.0 8.0 0.00 0.12 0.00 85 1012.0
20260504175545 60 33 4.0 8.0 0.00 0.12 0.00 85 1012.1
20260504175101 60 38 3.0 7.0 0.00 0.12 0.00 85 1012.1
20260504174542 60 340 4.0 10.0 0.00 0.12 0.00 85 1012.1
20260504174040 60 334 3.0 10.0 0.00 0.12 0.00 86 1012.2
20260504173546 60 36 2.0 9.0 0.00 0.12 0.00 86 1012.1
20260504173032 60 27 4.0 9.0 0.00 0.12 0.00 86 1012.2
20260504172614 60 360 1.0 7.0 0.00 0.12 0.00 86 1012.1
20260504172059 60 10 2.0 7.0 0.00 0.12 0.00 86 1012.1
20260504171538 60 15 3.0 6.0 0.00 0.12 0.00 87 1012.1
20260504171043 60 360 3.0 7.0 0.00 0.12 0.00 86 1012.1
20260504170605 61 37 4.0 7.0 0.00 0.12 0.00 86 1012.1
20260504151040 64 302 1.0 5.0 0.00 0.12 0.00 81 1011.7
20260504150601 64 349 1.0 4.0 0.00 0.12 0.00 81 1011.8
20260504141048 65 46 1.0 3.0 0.00 0.20 0.00 77 1012.0
20260504140621 66 87 1.0 3.0 0.00 0.20 0.00 78 1012.0
20260504130552 64 34 0.0 4.0 0.00 0.28 0.00 81 1012.3
20260504110542 64 9 1.0 3.0 0.00 0.35 0.00 82 1012.6
20260504110106 64 323 1.0 3.0 0.00 0.35 0.00 82 1012.6
20260504100538 63 71 1.0 4.0 0.00 0.51 0.00 84 1012.8
20260504081551 58 194 1.0 2.0 0.00 0.67 0.00 95 1012.5
20260504081049 58 211 1.0 2.0 0.00 0.67 0.00 94 1012.5
20260504080601 58 138 0.0 2.0 0.00 0.67 0.00 95 1012.4